NOAA 11 - Orbit

View from above orbital plane
View from above orbital plane
View from above satellite
View from above satellite

Ground track
Ground track

The orbit data is extracted from the following two-line orbital elements,

1 19531U 88089A   13141.29288358  .00000097  00000-0  72373-4 0  3645
2 19531 098.7111 224.9587 0010543 343.5802 047.9986 14.15014600272324
Epoch (UTC): 21 May 2013 07:01:45
Eccentricity: 0.0010543
inclination: 98.7111°
perigee height: 834 km
apogee height: 850 km
right ascension of ascending node: 224.9587°
argument of perigee: 343.5802°
revolutions per day: 14.15014600
mean anomaly at epoch: 47.9986°
orbit number at epoch: 27232

The dashed part of the orbit path shows where the satellite is in the earth's shadow,  

Developed and maintained by Chris Peat, Heavens-Above GmbH. Please read the updated FAQ before sending e-mail. Imprint. DLR